Location: Bennemühlen
(52.5740°N, 9.7135°E)
Time: 06:34:27
(UTC+00:00)

A-11 Canister half - Pass Details

Date: 21 February 2026
Orbit: 1512 x 1687 km, 47.2° (Epoch: 8 March)

Event Time Altitude Azimuth Distance (km) Brightness Sun altitude
Rises 23:49:22 0° 275° (W) 4,923 11.7 -48.0°
Enters shadow 23:50:03 - 275° (W) 4,708 11.5 -47.9°
Reaches altitude 10° 23:52:37 10° 272° (W) 3,919 - -47.9°
Maximum altitude 00:02:19 58° 197° (SSW) 1,859 - -47.7°
Drops below altitude 10° 00:11:40 10° 123° (ESE) 3,785 - -47.4°
Sets 00:14:45 0° 119° (ESE) 4,745 - -47.3°
